HULIANWANG DIGUI-30

导读

HULIANWANG DIGUI-30是中国于2025年6月5日发射的低轨卫星,属于互联网低轨卫星星座组网进程中的重要节点。该卫星旨在拓展全球互联网覆盖范围,提升偏远地区网络接入能力,助力构建天地一体化信息网络,推动卫星互联网技术发展与商业化应用,服务全球数字连接与信息互联互通建设。

Basic Information
目录编号:
64283
目录名称:
HULIANWANG DIGUI-30
国际标识:
2025-121A
轨道中心:
EARTH
卫星名称:
HULIANWANG DIGUI-30
卫星全名:
HULIANWANG DIGUI-30
卫星状态:
在轨 (已飞行417 天)
发射日期:
2025-06-05 UTC
国别 :
中国 (CN)
星等 :
--
Orbit Information
数据来源 国际轨道数据 AOE轨道数据
星历时间 2026-07-27T23:53:22+0800
7小时前
查看轨道信息
2026-07-22T08:00:00+0800
5天前
查看轨道信息
半长轴 7546.061km 7546.06km
偏心率 0.0001818 0.0002119
轨道倾角 86.501° 86.500°
近地点辐角 89.376° 88.521°
升交点赤经 359.899° 1.809°
平近点角 270.758° 290.973°
近地点 1166.552km 1166.323km
远地点 1169.296km 1169.523km
周期 108.728分钟 108.728分钟
每日圈数 13.244097 13.2441
Detailed Information
使用方式:
暂无
2D Orbit Map
3D Orbit Map
Orbit Altitude Analysis Chart
Orbit Inclination Analysis Chart
Orbit Comprehensive Analysis Chart
View Comprehensive Chart